| time (UTC) | temp C | wind direction | speed KPH | gust KPH | rain 1hr cm | rain 24hr cm | rain mn cm | humidity % | barometer mb |
| 20260505041416 | 21 | 139 | 4.8 | 8.0 | 0.00 | 0.00 | 0.00 | 28 | 964.0 |
| 20260505040915 | 22 | 171 | 1.6 | 11.3 | 0.00 | 0.00 | 0.00 | 27 | 964.0 |
| 20260505040416 | 21 | 168 | 9.7 | 12.9 | 0.00 | 0.00 | 0.00 | 28 | 963.0 |
| 20260505035915 | 22 | 181 | 9.7 | 16.1 | 0.00 | 0.00 | 0.00 | 28 | 963.0 |
| 20260505035416 | 21 | 182 | 4.8 | 11.3 | 0.00 | 0.00 | 0.00 | 30 | 964.0 |
| 20260505034915 | 22 | 165 | 8.0 | 12.9 | 0.00 | 0.00 | 0.00 | 28 | 963.0 |
| 20260505034415 | 21 | 18 | 6.4 | 11.3 | 0.00 | 0.00 | 0.00 | 28 | 963.0 |
| 20260505033916 | 21 | 10 | 6.4 | 12.9 | 0.00 | 0.00 | 0.00 | 29 | 963.0 |
| 20260505033415 | 21 | 12 | 4.8 | 9.7 | 0.00 | 0.00 | 0.00 | 30 | 963.0 |
| 20260505032915 | 21 | 15 | 6.4 | 9.7 | 0.00 | 0.00 | 0.00 | 31 | 963.0 |
| 20260505032415 | 21 | 11 | 8.0 | 9.7 | 0.00 | 0.00 | 0.00 | 30 | 963.0 |
| 20260505031916 | 21 | 6 | 3.2 | 4.8 | 0.00 | 0.00 | 0.00 | 31 | 963.0 |
| 20260505031416 | 21 | 4 | 4.8 | 4.8 | 0.00 | 0.00 | 0.00 | 30 | 963.0 |
| 20260505030915 | 21 | 356 | 3.2 | 4.8 | 0.00 | 0.00 | 0.00 | 30 | 963.0 |
| 20260505030415 | 21 | 2 | 3.2 | 4.8 | 0.00 | 0.00 | 0.00 | 29 | 963.0 |
| 20260505025915 | 22 | 5 | 4.8 | 4.8 | 0.00 | 0.00 | 0.00 | 28 | 962.0 |
| 20260505025415 | 22 | 11 | 4.8 | 9.7 | 0.00 | 0.00 | 0.00 | 28 | 963.0 |
| 20260505024915 | 22 | 7 | 4.8 | 12.9 | 0.00 | 0.00 | 0.00 | 33 | 962.0 |
| 20260505024415 | 23 | 35 | 11.3 | 20.9 | 0.00 | 0.00 | 0.00 | 29 | 963.0 |
| 20260505023915 | 22 | 0 | 6.4 | 9.7 | 0.00 | 0.00 | 0.00 | 28 | 962.0 |
| 20260505023416 | 23 | 7 | 4.8 | 12.9 | 0.00 | 0.00 | 0.00 | 28 | 963.0 |
| 20260505022915 | 22 | 5 | 8.0 | 9.7 | 0.00 | 0.00 | 0.00 | 31 | 962.0 |
| 20260505022415 | 22 | 350 | 3.2 | 8.0 | 0.00 | 0.00 | 0.00 | 35 | 963.0 |
| 20260505021915 | 22 | 353 | 3.2 | 12.9 | 0.00 | 0.00 | 0.00 | 31 | 962.0 |
| 20260505021415 | 23 | 354 | 4.8 | 11.3 | 0.00 | 0.00 | 0.00 | 27 | 962.0 |
| 20260505020916 | 22 | 0 | 8.0 | 14.5 | 0.00 | 0.00 | 0.00 | 31 | 962.0 |
| 20260505020415 | 23 | 352 | 6.4 | 11.3 | 0.00 | 0.00 | 0.00 | 26 | 962.0 |
| 20260505015915 | 22 | 339 | 0.0 | 8.0 | 0.00 | 0.00 | 0.00 | 34 | 962.0 |
| 20260505015416 | 22 | 340 | 0.0 | 3.2 | 0.00 | 0.00 | 0.00 | 38 | 962.0 |
| 20260505014915 | 22 | 345 | 1.6 | 11.3 | 0.00 | 0.00 | 0.00 | 28 | 962.0 |
| 20260505014416 | 22 | 337 | 3.2 | 8.0 | 0.00 | 0.00 | 0.00 | 29 | 962.0 |
| 20260505013915 | 21 | 337 | 1.6 | 4.8 | 0.00 | 0.00 | 0.00 | 34 | 962.0 |
| 20260505013416 | 22 | 341 | 3.2 | 8.0 | 0.00 | 0.00 | 0.00 | 31 | 962.0 |
| 20260505012915 | 21 | 343 | 4.8 | 8.0 | 0.00 | 0.00 | 0.00 | 36 | 962.0 |
| 20260505012415 | 21 | 331 | 0.0 | 3.2 | 0.00 | 0.00 | 0.00 | 35 | 962.0 |
| 20260505011915 | 22 | 331 | 0.0 | 3.2 | 0.00 | 0.00 | 0.00 | 33 | 962.0 |
| 20260505011415 | 22 | 336 | 0.0 | 3.2 | 0.00 | 0.00 | 0.00 | 33 | 962.0 |
| 20260505010916 | 22 | 337 | 1.6 | 3.2 | 0.00 | 0.00 | 0.00 | 31 | 962.0 |
| 20260505010415 | 22 | 332 | 0.0 | 3.2 | 0.00 | 0.00 | 0.00 | 36 | 962.0 |
| 20260505005915 | 23 | 338 | 1.6 | 4.8 | 0.00 | 0.00 | 0.00 | 30 | 962.0 |
| 20260505005415 | 23 | 344 | 1.6 | 4.8 | 0.00 | 0.00 | 0.00 | 28 | 962.0 |
| 20260505004915 | 23 | 336 | 1.6 | 4.8 | 0.00 | 0.00 | 0.00 | 30 | 962.0 |
| 20260505004416 | 23 | 341 | 3.2 | 4.8 | 0.00 | 0.00 | 0.00 | 32 | 962.0 |
| 20260505003915 | 22 | 334 | 1.6 | 3.2 | 0.00 | 0.00 | 0.00 | 32 | 962.0 |
| 20260505003415 | 22 | 345 | 3.2 | 4.8 | 0.00 | 0.00 | 0.00 | 37 | 962.0 |
| 20260505002915 | 23 | 346 | 4.8 | 4.8 | 0.00 | 0.00 | 0.00 | 31 | 962.0 |
| 20260505002416 | 23 | 347 | 6.4 | 11.3 | 0.00 | 0.00 | 0.00 | 33 | 962.0 |
| 20260505001915 | 22 | 342 | 3.2 | 11.3 | 0.00 | 0.00 | 0.00 | 29 | 962.0 |
| 20260505001415 | 22 | 339 | 0.0 | 3.2 | 0.00 | 0.00 | 0.00 | 42 | 962.0 |
| 20260505000915 | 22 | 340 | 1.6 | 4.8 | 0.00 | 0.00 | 0.00 | 35 | 962.0 |
| 20260505000416 | 22 | 346 | 4.8 | 4.8 | 0.00 | 0.00 | 0.00 | 35 | 962.0 |
| 20260504235915 | 22 | 342 | 4.8 | 4.8 | 0.00 | 0.00 | 0.00 | 35 | 962.0 |
| 20260504235415 | 22 | 344 | 4.8 | 8.0 | 0.00 | 0.00 | 0.00 | 40 | 962.0 |
| 20260504234915 | 22 | 343 | 4.8 | 4.8 | 0.00 | 0.00 | 0.00 | 37 | 963.0 |
| 20260504234415 | 23 | 345 | 4.8 | 9.7 | 0.00 | 0.00 | 0.00 | 31 | 962.0 |
| 20260504233916 | 22 | 341 | 1.6 | 3.2 | 0.00 | 0.00 | 0.00 | 38 | 962.0 |
| 20260504233416 | 22 | 341 | 0.0 | 1.6 | 0.00 | 0.00 | 0.00 | 37 | 963.0 |
| 20260504232915 | 22 | 342 | 4.8 | 8.0 | 0.00 | 0.00 | 0.00 | 39 | 963.0 |
| 20260504232415 | 21 | 341 | 3.2 | 11.3 | 0.00 | 0.00 | 0.00 | 43 | 963.0 |
| 20260504231916 | 22 | 343 | 3.2 | 8.0 | 0.00 | 0.00 | 0.00 | 43 | 963.0 |
| 20260504231415 | 22 | 347 | 4.8 | 8.0 | 0.00 | 0.00 | 0.00 | 32 | 963.0 |
| 20260504230916 | 22 | 341 | 1.6 | 8.0 | 0.00 | 0.00 | 0.00 | 36 | 962.0 |
| 20260504230415 | 22 | 347 | 4.8 | 11.3 | 0.00 | 0.00 | 0.00 | 33 | 963.0 |
| 20260504225915 | 22 | 350 | 8.0 | 8.0 | 0.00 | 0.00 | 0.00 | 34 | 963.0 |
| 20260504225415 | 22 | 345 | 4.8 | 8.0 | 0.00 | 0.00 | 0.00 | 33 | 962.0 |
| 20260504224915 | 22 | 343 | 4.8 | 9.7 | 0.00 | 0.00 | 0.00 | 31 | 962.0 |
| 20260504224415 | 23 | 348 | 6.4 | 8.0 | 0.00 | 0.00 | 0.00 | 35 | 962.0 |
| 20260504223916 | 23 | 337 | 4.8 | 9.7 | 0.00 | 0.00 | 0.00 | 32 | 963.0 |
| 20260504223415 | 22 | 340 | 1.6 | 3.2 | 0.00 | 0.00 | 0.00 | 31 | 963.0 |
| 20260504222915 | 22 | 347 | 4.8 | 4.8 | 0.00 | 0.00 | 0.00 | 35 | 963.0 |
| 20260504222415 | 23 | 342 | 3.2 | 4.8 | 0.00 | 0.00 | 0.00 | 30 | 962.0 |
| 20260504221915 | 22 | 344 | 4.8 | 4.8 | 0.00 | 0.00 | 0.00 | 37 | 962.0 |
| 20260504221416 | 23 | 344 | 4.8 | 12.9 | 0.00 | 0.00 | 0.00 | 35 | 963.0 |
| 20260504220915 | 22 | 351 | 4.8 | 9.7 | 0.00 | 0.00 | 0.00 | 32 | 963.0 |
| 20260504220415 | 24 | 351 | 6.4 | 9.7 | 0.00 | 0.00 | 0.00 | 30 | 963.0 |
| 20260504215916 | 23 | 345 | 4.8 | 8.0 | 0.00 | 0.00 | 0.00 | 28 | 963.0 |
| 20260504215415 | 22 | 346 | 4.8 | 11.3 | 0.00 | 0.00 | 0.00 | 35 | 963.0 |
| 20260504214916 | 22 | 347 | 4.8 | 8.0 | 0.00 | 0.00 | 0.00 | 40 | 963.0 |
| 20260504214415 | 23 | 351 | 8.0 | 9.7 | 0.00 | 0.00 | 0.00 | 29 | 963.0 |
| 20260504213925 | 22 | 350 | 8.0 | 11.3 | 0.00 | 0.00 | 0.00 | 37 | 963.0 |
| 20260504213417 | 22 | 351 | 8.0 | 9.7 | 0.00 | 0.00 | 0.00 | 37 | 963.0 |
| 20260504212915 | 22 | 352 | 6.4 | 9.7 | 0.00 | 0.00 | 0.00 | 35 | 963.0 |
| 20260504212416 | 22 | 350 | 8.0 | 9.7 | 0.00 | 0.00 | 0.00 | 34 | 963.0 |
| 20260504211915 | 23 | 345 | 4.8 | 8.0 | 0.00 | 0.00 | 0.00 | 38 | 963.0 |
| 20260504211415 | 23 | 349 | 6.4 | 11.3 | 0.00 | 0.00 | 0.00 | 33 | 963.0 |
| 20260504210915 | 22 | 349 | 4.8 | 9.7 | 0.00 | 0.00 | 0.00 | 36 | 963.0 |
| 20260504210416 | 22 | 343 | 3.2 | 4.8 | 0.00 | 0.00 | 0.00 | 39 | 963.0 |
| 20260504205915 | 22 | 344 | 6.4 | 8.0 | 0.00 | 0.00 | 0.00 | 34 | 963.0 |
| 20260504205416 | 22 | 345 | 6.4 | 11.3 | 0.00 | 0.00 | 0.00 | 35 | 963.0 |
| 20260504204916 | 22 | 351 | 8.0 | 11.3 | 0.00 | 0.00 | 0.00 | 35 | 963.0 |
| 20260504204415 | 23 | 350 | 8.0 | 9.7 | 0.00 | 0.00 | 0.00 | 31 | 963.0 |
| 20260504203915 | 23 | 345 | 4.8 | 9.7 | 0.00 | 0.00 | 0.00 | 30 | 963.0 |
| 20260504203424 | 22 | 351 | 8.0 | 9.7 | 0.00 | 0.00 | 0.00 | 31 | 964.0 |
| 20260504202916 | 21 | 346 | 6.4 | 11.3 | 0.00 | 0.00 | 0.00 | 35 | 963.0 |
| 20260504202415 | 21 | 347 | 6.4 | 9.7 | 0.00 | 0.00 | 0.00 | 40 | 964.0 |
| 20260504201915 | 21 | 348 | 8.0 | 9.7 | 0.00 | 0.00 | 0.00 | 36 | 964.0 |
| 20260504201415 | 20 | 345 | 6.4 | 8.0 | 0.00 | 0.00 | 0.00 | 43 | 964.0 |
| 20260504200915 | 20 | 346 | 6.4 | 8.0 | 0.00 | 0.00 | 0.00 | 41 | 963.0 |
| 20260504200416 | 20 | 341 | 4.8 | 4.8 | 0.00 | 0.00 | 0.00 | 44 | 964.0 |
| 20260504195915 | 20 | 338 | 3.2 | 4.8 | 0.00 | 0.00 | 0.00 | 46 | 964.0 |
| 20260504195416 | 20 | 337 | 1.6 | 3.2 | 0.00 | 0.00 | 0.00 | 49 | 964.0 |
| 20260504194915 | 20 | 337 | 1.6 | 1.6 | 0.00 | 0.00 | 0.00 | 48 | 964.0 |
| 20260504194417 | 20 | 338 | 3.2 | 3.2 | 0.00 | 0.00 | 0.00 | 48 | 964.0 |
| 20260504193916 | 20 | 340 | 3.2 | 4.8 | 0.00 | 0.00 | 0.00 | 43 | 964.0 |
| 20260504193419 | 20 | 339 | 3.2 | 4.8 | 0.00 | 0.00 | 0.00 | 46 | 964.0 |
| 20260504192915 | 21 | 336 | 1.6 | 1.6 | 0.00 | 0.00 | 0.00 | 51 | 964.0 |
| 20260504192415 | 21 | 334 | 0.0 | 4.8 | 0.00 | 0.00 | 0.00 | 43 | 964.0 |
| 20260504191915 | 21 | 337 | 1.6 | 3.2 | 0.00 | 0.00 | 0.00 | 40 | 964.0 |
| 20260504191415 | 21 | 336 | 0.0 | 1.6 | 0.00 | 0.00 | 0.00 | 40 | 964.0 |
| 20260504190915 | 21 | 336 | 1.6 | 4.8 | 0.00 | 0.00 | 0.00 | 39 | 964.0 |
| 20260504190415 | 21 | 336 | 0.0 | 1.6 | 0.00 | 0.00 | 0.00 | 39 | 964.0 |
| 20260504185915 | 21 | 336 | 0.0 | 1.6 | 0.00 | 0.00 | 0.00 | 39 | 964.0 |
| 20260504185415 | 22 | 339 | 1.6 | 3.2 | 0.00 | 0.00 | 0.00 | 39 | 964.0 |
| 20260504184915 | 21 | 334 | 0.0 | 0.0 | 0.00 | 0.00 | 0.00 | 40 | 964.0 |
| 20260504184415 | 21 | 336 | 0.0 | 0.0 | 0.00 | 0.00 | 0.00 | 39 | 965.0 |
| 20260504183916 | 20 | 336 | 0.0 | 0.0 | 0.00 | 0.00 | 0.00 | 41 | 965.0 |
| 20260504183416 | 20 | 337 | 0.0 | 1.6 | 0.00 | 0.00 | 0.00 | 41 | 964.0 |
| 20260504182915 | 19 | 336 | 0.0 | 1.6 | 0.00 | 0.00 | 0.00 | 42 | 965.0 |
| 20260504182416 | 18 | 336 | 0.0 | 0.0 | 0.00 | 0.00 | 0.00 | 47 | 965.0 |
| 20260504181916 | 18 | 339 | 0.0 | 0.0 | 0.00 | 0.00 | 0.00 | 44 | 964.0 |
| 20260504181416 | 18 | 337 | 0.0 | 0.0 | 0.00 | 0.00 | 0.00 | 43 | 965.0 |
| 20260504180915 | 16 | 339 | 0.0 | 0.0 | 0.00 | 0.00 | 0.00 | 46 | 965.0 |
| 20260504180415 | 16 | 341 | 0.0 | 0.0 | 0.00 | 0.00 | 0.00 | 50 | 965.0 |
| 20260504175916 | 16 | 340 | 0.0 | 0.0 | 0.00 | 0.00 | 0.00 | 55 | 965.0 |
| 20260504175415 | 16 | 340 | 0.0 | 0.0 | 0.00 | 0.00 | 0.00 | 56 | 965.0 |
| 20260504174915 | 16 | 338 | 0.0 | 0.0 | 0.00 | 0.00 | 0.00 | 58 | 965.0 |
| 20260504174416 | 16 | 337 | 0.0 | 0.0 | 0.00 | 0.00 | 0.00 | 52 | 965.0 |
| 20260504173915 | 15 | 339 | 0.0 | 0.0 | 0.00 | 0.00 | 0.00 | 58 | 965.0 |
| 20260504173415 | 16 | 341 | 0.0 | 0.0 | 0.00 | 0.00 | 0.00 | 60 | 965.0 |
| 20260504172916 | 16 | 339 | 0.0 | 0.0 | 0.00 | 0.00 | 0.00 | 58 | 965.0 |
| 20260504172416 | 16 | 338 | 0.0 | 0.0 | 0.00 | 0.00 | 0.00 | 56 | 965.0 |
| 20260504171916 | 15 | 339 | 0.0 | 0.0 | 0.00 | 0.00 | 0.00 | 62 | 965.0 |
| 20260504171416 | 16 | 337 | 0.0 | 0.0 | 0.00 | 0.00 | 0.00 | 59 | 965.0 |
| 20260504170915 | 15 | 337 | 0.0 | 0.0 | 0.00 | 0.00 | 0.00 | 59 | 965.0 |
| 20260504170417 | 15 | 342 | 0.0 | 0.0 | 0.00 | 0.00 | 0.00 | 60 | 965.0 |
| 20260504160416 | 15 | 340 | 0.0 | 0.0 | 0.00 | 0.00 | 0.00 | 63 | 965.0 |
| 20260504150917 | 15 | 329 | 0.0 | 0.0 | 0.00 | 0.00 | 0.00 | 62 | 966.0 |
| 20260504150415 | 14 | 329 | 0.0 | 0.0 | 0.00 | 0.00 | 0.00 | 63 | 966.0 |
| 20260504140917 | 11 | 325 | 0.0 | 0.0 | 0.00 | 0.00 | 0.00 | 64 | 966.0 |
| 20260504140415 | 12 | 325 | 0.0 | 0.0 | 0.00 | 0.00 | 0.00 | 63 | 966.0 |
| 20260504130416 | 7 | 326 | 0.0 | 0.0 | 0.00 | 0.00 | 0.00 | 78 | 966.0 |
| 20260504110416 | 9 | 326 | 0.0 | 0.0 | 0.00 | 0.00 | 0.00 | 70 | 965.0 |
| 20260504100415 | 11 | 321 | 0.0 | 0.0 | 0.00 | 0.00 | 0.00 | 60 | 965.0 |
| 20260504081915 | 13 | 319 | 0.0 | 0.0 | 0.00 | 0.00 | 0.00 | 55 | 965.0 |
| 20260504081415 | 13 | 319 | 0.0 | 0.0 | 0.00 | 0.00 | 0.00 | 55 | 965.0 |
| 20260504080915 | 12 | 319 | 0.0 | 0.0 | 0.00 | 0.00 | 0.00 | 54 | 965.0 |
| 20260504080415 | 12 | 319 | 0.0 | 0.0 | 0.00 | 0.00 | 0.00 | 59 | 965.0 |
| 20260504050415 | 16 | 259 | 0.0 | 0.0 | 0.00 | 0.00 | 0.00 | 46 | 964.0 |
| 20260504045915 | 17 | 238 | 0.0 | 1.6 | 0.00 | 0.00 | 0.00 | 44 | 964.0 |